Regional Weather Roundup
Issued by NWS Albany, NY

Home | Current Version | Previous Version | Text Only | Print | Product List | Glossary On
Versions: 1 2 3 4 5 6 7 8 9 10 11 12 13 14 15 16 17 18 19 20 21 22 23 24 25 26 27 28 29 30 31 32 33 34 35 36 37 38 39 40 41 42 43 44 45 46 47 48 49 50
000
ASUS41 KALY 242110
RWRALY

NEW YORK STATE HOURLY WEATHER ROUNDUP
NATIONAL WEATHER SERVICE ALBANY NY
500 PM EDT SAT JUN 24 2017

NOTE: "FAIR" INDICATES FEW OR NO CLOUDS BELOW 12,000 FEET WITH NO
SIGNIFICANT WEATHER AND/OR NO OBSTRUCTIONS TO VISIBILITY.

NYZ032-033-038>043-046>054-057>066-NYZ062>081-082-084-242200-
EAST


CITY           SKY/WX    TMP DP  RH WIND       PRES   REMARKS
ALBANY         MOSUNNY   81  53  37 NW13G21   29.76R
GLENS FALLS    MOSUNNY   81  52  36 W10G20    29.72R
POUGHKEEPSIE   CLOUDY    84  51  31 NW15G21   29.76R
NEWBURGH       MOSUNNY   82  55  39 NW12G23   29.80R
MONTGOMERY     MOSUNNY   84  52  33 NW8       29.78R
WHITE PLAINS   MOSUNNY   81  52  36 W12       29.79R
ISLIP          PTSUNNY   85  55  35 W18G25    29.76R
NEW YORK CITY  PTSUNNY   85  53  33 NW21G26   29.77R
CENTRAL PARK   CLOUDY    82  53  36 VRB3      29.82R
$$

NYZ005>009-017-018-044>046-055-056-242200-
CENTRAL


CITY           SKY/WX    TMP DP  RH WIND       PRES   REMARKS
FULTON         CLOUDY    70  53  54 W8        29.81R
SYRACUSE       PTSUNNY   73  52  47 W17G24    29.81R
ROME           MOSUNNY   74  55  51 NW13G22   29.79R
ELMIRA         MOSUNNY   81  57  44 NW9       29.80S
BINGHAMTON     NOT AVBL
MONTICELLO     SUNNY     79  52  38 W10G16    29.84S
$$

NYZ026>034-041>043-087-242200-
NORTH


CITY           SKY/WX    TMP DP  RH WIND       PRES   REMARKS
WATERTOWN      SUNNY     72  58  61 SW16G24   29.77R
FORT DRUM      NOT AVBL
OGDENSBURG     FAIR      77  58  52 SW13      29.70R
MASSENA        MOSUNNY   79  53  40 W17G25    29.68R
SARANAC LAKE   MOSUNNY   72  49  44 SW14G26   29.74R
PLATTSBURGH    CLOUDY    82  54  37 W8        29.65R
$$

NYZ001>004-010>016-019>021-085-242200-
WEST


CITY           SKY/WX    TMP DP  RH WIND       PRES   REMARKS
NIAGARA FALLS  TSTM      66  58  75 W16       29.85S
BUFFALO        PTSUNNY   72  57  59 SW20G31   29.84R
DUNKIRK        SUNNY     72  59  63 W20G29    29.88R
JAMESTOWN      MOSUNNY   70  52  52 W10G21    29.92R
WELLSVILLE     MOSUNNY   74  55  51 NW16G22   29.90R
ROCHESTER      HVY RAIN  67  60  78 NW10      29.84R
PENN YAN       PTSUNNY   78  50  37 W18G28    29.83R
$$

             KEY
       WCI = WIND CHILL INDEX
       VSB = VISIBILITY
       HX  = HEAT INDEX
$$



USA.gov is the U.S. government's official web portal to all federal, state and local government web resources and services.